Wind_Speed
5 7 9 7 6 5 13 10 10 12 8 6 9 13 7 6 7 3 15 17 15 15 14 14 15 14 16 17 22 20 16 14 7 13 11 12 14 15 17 17 18 18 18 18 17 16 15 15 14
5 5 9 9 13 16 11 13 12 10 11 11 12 6 7 9 2 14 17 19 17 16 18 19 19 17 19 20 19 19 16 15 15 17 15 16 17 19 19 18 18 18 18 17 16 15 14 13 14
3 4 8 5 8 11 13 18 15 10 9 5 4 8 5 7 18 17 19 18 18 19 18 18 16 17 21 21 25 23 21 18 19 18 18 17 18 18 18 18 18 18 18 17 16 16 16 16 17
6 3 5 5 11 11 10 15 10 4 10 5 11 15 21 19 16 17 18 16 17 16 16 16 16 17 21 20 24 25 25 24 21 20 20 19 18 19 19 18 17 15 16 16 16 17 19 18 20
4 3 4 11 10 13 12 14 10 3 6 7 6 16 22 21 21 15 18 16 16 15 15 16 17 18 20 22 24 21 21 20 20 20 19 20 20 19 18 16 16 16 16 17 18 20 19 18 19
1 3 9 6 7 11 13 19 18 6 9 3 6 18 25 20 16 17 18 17 16 14 15 15 17 17 18 19 19 19 19 20 19 19 19 20 21 19 17 15 15 16 19 20 19 19 19 20 20
2 5 10 7 8 13 8 19 13 1 6 5 7 16 20 20 18 15 15 15 15 14 15 15 16 17 17 17 17 19 19 17 17 17 18 18 19 18 16 18 19 19 20 21 20 20 21 21 22
14 4 1 8 13 10 12 14 14 8 7 6 8 4 15 19 14 11 16 15 14 15 14 13 14 16 17 17 18 18 19 17 18 18 20 18 17 17 17 19 20 20 20 20 20 21 21 22 22
7 2 5 10 11 8 10 15 24 14 10 10 3 6 15 15 11 17 14 13 15 15 14 14 14 14 14 15 16 17 18 17 17 18 19 17 16 16 19 20 21 21 20 20 20 20 22 23 21
13 10 3 8 20 15 13 21 18 10 19 13 11 10 15 13 16 16 10 8 13 11 12 13 13 14 14 14 14 16 17 17 17 16 16 18 17 18 20 20 20 20 20 19 18 18 21 20 18
7 8 5 8 12 11 15 15 15 13 21 4 4 6 14 13 15 11 12 13 8 9 9 11 12 14 14 13 13 15 15 17 18 18 18 19 18 19 19 19 19 18 17 17 16 18 19 21 19
9 9 2 6 4 10 24 16 14 18 8 8 7 4 8 12 11 11 15 13 12 9 10 8 11 13 13 13 13 14 14 14 15 17 19 19 19 20 20 19 17 15 15 15 14 17 19 20 20
6 5 3 8 2 1 23 19 12 20 11 14 13 1 10 13 10 10 12 8 10 7 8 5 10 13 14 14 14 15 15 14 15 17 18 19 19 20 20 19 17 15 14 12 12 15 19 20 20
8 2 8 9 7 16 25 11 16 24 20 23 15 4 8 12 10 5 6 9 6 5 5 4 10 12 13 13 14 15 15 14 15 17 18 19 18 18 17 17 15 13 13 12 13 15 16 19 20
7 5 8 5 9 12 10 14 9 19 27 19 13 6 7 10 9 5 5 5 2 0 2 1 12 12 16 14 13 14 15 17 18 17 16 17 17 16 16 16 14 14 13 12 13 17 17 19 18
7 8 2 3 7 12 15 12 11 17 23 29 20 15 11 10 9 6 7 6 4 3 2 1 8 11 18 16 14 13 16 17 16 15 15 14 15 15 16 15 14 15 12 14 15 17 18 19 19
8 3 3 8 8 4 12 9 12 16 24 28 22 20 18 15 10 10 8 8 4 3 5 4 9 16 23 20 19 17 17 17 15 16 13 11 13 14 15 18 15 15 11 15 16 18 18 19 19
13 13 5 9 8 13 11 12 16 14 19 25 24 21 21 17 11 7 10 5 4 2 3 4 11 17 26 25 22 19 19 18 17 16 15 12 13 14 13 14 13 15 12 16 18 20 20 20 19
9 8 14 7 7 5 7 16 12 20 20 23 25 26 24 19 13 10 11 8 3 9 5 3 9 17 26 29 23 23 20 21 18 16 14 12 12 11 12 13 15 15 15 17 19 20 21 20 19
10 9 8 7 6 7 9 8 17 20 22 26 26 29 27 22 17 17 14 12 7 7 6 4 10 12 13 21 23 18 22 19 21 20 15 15 14 15 16 12 13 19 18 15 15 20 21 20 19
11 16 15 7 8 10 7 11 16 16 19 28 29 27 28 26 21 20 14 13 14 6 7 5 7 11 13 19 26 22 19 19 21 17 14 13 14 16 18 16 12 21 20 17 17 19 22 19 18
11 8 14 5 13 6 7 4 7 11 14 23 31 32 33 31 24 22 17 13 13 9 7 7 8 9 16 21 23 25 18 15 15 13 15 15 14 15 13 13 13 20 18 18 16 20 22 19 18
8 14 11 9 13 5 4 6 3 11 10 16 21 36 35 33 29 26 21 13 13 13 9 6 6 8 12 19 21 21 18 16 16 16 21 18 16 17 18 14 15 17 22 22 17 19 20 20 19
12 16 14 12 12 7 10 6 4 5 6 8 15 21 27 26 30 30 25 19 16 13 15 11 5 6 8 14 23 23 21 18 19 21 19 17 15 16 15 16 15 18 18 20 16 18 19 22 21
16 15 4 1 1 7 10 4 6 8 9 12 9 12 18 16 31 32 27 24 20 15 16 13 10 4 8 10 21 23 21 20 22 20 19 18 17 14 13 15 17 17 17 21 18 19 18 23 20
18 17 6 5 4 6 2 3 5 7 10 11 9 9 11 17 23 35 31 26 23 16 17 13 11 7 9 10 15 21 21 18 22 18 18 14 17 15 15 15 15 18 19 18 20 23 19 20 18
5 4 6 2 3 2 3 4 8 8 8 13 16 15 15 14 19 32 33 31 26 22 19 16 11 9 11 13 15 17 17 17 17 16 16 15 18 17 15 16 15 15 19 21 22 22 20 19 21
5 6 4 2 3 2 3 4 6 6 11 15 16 13 10 15 18 21 29 34 27 21 21 22 18 12 10 13 16 17 16 16 17 17 17 17 17 16 16 15 17 18 17 17 20 23 21 23 22
5 7 4 5 3 6 2 5 6 7 8 11 14 13 12 18 17 22 29 34 34 26 28 24 18 16 15 13 17 19 16 16 16 18 17 16 15 15 15 16 16 15 16 16 17 18 19 20 21
1 3 5 5 6 6 3 5 9 8 10 11 11 14 18 24 20 20 21 35 35 29 28 19 20 21 19 14 15 16 17 18 19 18 18 17 17 17 18 15 13 14 15 15 15 16 17 17 18
Wind_Direction
104 88 96 108 99 119 120 135 149 124 121 117 177 168 158 152 114 103 125 127 119 124 136 142 144 145 145 156 177 175 179 187 178 167 155 142 134 128 123 124 123 122 121 118 118 119 121 123 123
108 89 101 79 117 103 129 135 122 92 102 107 152 188 186 179 152 144 130 125 115 117 124 132 140 142 135 131 132 146 154 160 162 153 151 140 135 131 129 127 124 122 117 118 118 117 118 117 117
72 98 149 105 104 89 136 142 125 91 79 52 157 173 220 165 137 142 130 128 121 121 120 123 135 136 120 128 130 125 115 128 146 141 133 129 131 131 126 124 122 122 122 123 123 120 115 109 109
59 123 138 140 107 101 160 159 133 51 104 73 95 123 122 120 135 131 130 134 128 131 125 125 126 120 118 123 128 133 137 141 145 139 132 135 134 129 123 123 123 126 125 122 123 119 111 99 107
86 178 147 120 112 116 131 154 149 80 89 110 119 136 126 131 130 121 131 128 128 142 140 135 129 125 125 129 129 132 136 142 140 135 129 131 129 128 122 119 123 123 125 125 125 114 108 110 108
223 215 149 154 125 145 152 154 163 143 69 94 137 139 130 129 130 134 131 126 126 139 143 144 140 135 134 132 135 133 133 139 138 132 129 128 123 124 121 120 122 122 121 123 119 112 115 113 111
5 158 152 180 142 174 147 152 171 241 97 123 131 143 138 141 127 131 132 134 129 138 144 148 144 137 136 135 135 135 135 138 134 126 129 125 127 125 124 120 120 121 120 121 118 117 119 115 113
80 119 167 178 184 215 155 156 161 187 186 140 151 144 160 137 137 139 150 144 141 141 144 149 143 142 143 144 145 143 141 135 132 124 127 129 125 122 122 121 121 121 119 118 118 118 118 117 113
30 52 269 217 158 222 144 170 166 174 179 145 177 162 168 149 128 136 133 159 156 149 145 149 147 145 150 150 143 141 142 142 140 134 131 129 121 123 123 123 122 121 118 115 114 113 114 113 111
353 359 314 132 178 174 166 162 179 168 162 181 179 169 155 152 121 129 89 127 141 152 151 150 155 152 149 145 143 143 145 148 147 143 138 137 134 129 128 126 126 126 124 122 118 118 114 116 118
357 352 247 187 171 180 161 178 190 175 178 181 190 107 164 152 139 125 133 121 112 140 166 160 160 158 148 149 145 145 149 154 154 149 145 141 136 134 128 128 124 125 124 123 125 124 123 125 130
329 339 23 212 271 226 203 196 174 180 178 152 194 49 184 173 140 135 119 109 99 98 157 164 168 171 163 159 152 148 151 154 158 151 149 146 143 142 140 138 137 134 128 124 129 127 127 131 133
21 64 82 125 46 190 152 180 166 185 187 173 200 223 170 153 163 146 157 126 119 96 143 184 192 181 174 173 165 160 155 158 162 155 152 155 154 154 150 145 145 146 144 140 141 139 137 141 133
274 227 127 103 89 143 157 164 170 181 190 185 189 187 171 173 175 143 136 172 144 104 126 176 177 188 191 191 175 175 167 164 164 157 159 160 161 161 158 158 154 156 150 156 159 153 149 144 139
249 138 118 109 135 162 176 199 203 176 186 186 187 182 186 197 195 126 125 139 203 303 198 206 206 202 202 194 183 180 176 159 163 162 158 171 173 170 166 160 157 158 154 159 163 162 153 150 151
138 95 119 268 147 177 202 206 200 196 186 184 201 202 202 209 206 172 143 197 210 266 257 315 186 205 194 204 196 186 182 169 162 168 171 175 171 168 171 168 168 169 160 162 161 162 155 154 151
166 115 257 226 221 220 202 202 207 205 198 198 196 205 213 219 218 191 211 228 226 273 270 233 193 184 191 203 195 190 185 176 168 159 164 176 192 179 173 182 181 178 177 167 155 151 152 154 153
204 219 222 214 254 252 244 193 203 207 209 204 199 202 215 216 236 233 189 200 237 253 146 173 193 194 196 197 191 194 195 187 188 179 174 171 177 185 192 180 187 188 184 169 164 159 159 163 163
198 304 268 272 305 200 204 202 213 214 219 218 213 208 217 217 223 226 212 217 204 163 131 122 201 197 202 199 197 192 200 192 188 186 178 179 182 193 188 187 197 194 177 172 176 176 173 171 175
268 294 231 250 281 217 213 200 212 219 231 238 226 219 217 219 221 217 218 192 168 151 167 175 186 199 192 191 180 191 195 194 192 199 186 191 186 182 185 206 198 194 187 179 190 194 186 184 190
251 276 241 225 274 238 227 256 230 232 229 229 224 227 226 223 230 225 215 198 191 170 109 162 193 197 202 201 195 194 203 201 197 199 193 198 200 197 210 221 211 200 199 220 218 217 205 202 200
276 213 197 254 228 254 215 290 288 252 245 228 227 225 226 231 225 234 228 220 182 170 141 164 184 207 199 206 200 204 211 190 192 205 207 209 200 195 186 201 223 204 203 205 221 210 215 216 215
268 187 202 210 218 221 228 265 281 293 262 246 243 225 231 230 239 240 235 217 208 183 161 158 178 198 202 205 204 211 208 196 185 198 208 213 204 196 196 192 203 207 215 216 209 208 216 220 226
174 185 209 225 222 259 243 217 290 315 273 265 259 241 227 234 231 237 232 228 204 199 188 190 174 206 213 212 212 217 220 210 207 199 203 207 208 200 204 202 216 214 210 202 207 212 220 220 231
183 186 183 165 162 222 202 254 256 283 299 304 288 264 235 238 229 229 228 226 229 217 213 195 188 202 223 221 217 214 221 218 216 211 218 218 218 218 209 211 218 217 210 207 207 205 223 223 231
229 220 182 182 192 233 255 254 249 278 303 304 299 283 258 238 232 229 229 233 233 223 215 209 188 183 217 218 215 215 217 225 223 224 210 212 215 221 226 219 218 217 215 209 209 213 223 226 233
224 173 183 168 175 231 275 262 273 280 310 306 302 312 284 257 240 232 227 233 230 226 224 216 204 198 201 208 215 218 218 219 225 230 220 225 210 219 222 214 209 217 216 220 218 214 224 231 235
215 212 210 161 134 208 273 259 251 256 292 292 281 294 293 276 260 227 227 222 228 232 224 225 229 224 227 217 215 217 222 229 225 226 221 211 219 222 223 209 209 212 217 224 226 231 242 243 240
182 199 174 148 160 152 189 254 252 272 304 308 307 301 319 305 259 244 233 221 223 229 221 221 224 231 227 218 212 219 216 222 228 224 222 217 226 229 220 216 226 223 221 226 224 224 235 240 241
161 256 241 205 202 194 196 262 260 266 297 294 311 297 299 311 272 228 233 212 213 214 201 208 222 227 232 229 222 215 220 221 226 230 227 225 223 223 216 226 213 219 221 226 227 230 237 239 241
Height
3153 3154 3154 3156 3160 3158 3158 3159 3159 3159 3160 3159 3160 3160 3162 3162 3162 3167 3163 3163 3164 3164 3165 3166 3167 3169 3170 3172 3173 3178 3180 3182 3183 3184 3186 3186 3187 3188 3190 3192 3193 3193 3193 3194 3195 3196 3198 3198 3199
3153 3155 3155 3156 3159 3158 3161 3160 3160 3160 3161 3161 3162 3163 3163 3163 3164 3166 3165 3166 3167 3167 3168 3169 3170 3171 3170 3171 3173 3178 3181 3181 3186 3186 3188 3189 3190 3191 3193 3195 3195 3195 3197 3197 3199 3199 3201 3201 3202
3156 3156 3158 3158 3159 3160 3161 3162 3161 3163 3163 3164 3163 3163 3164 3166 3167 3168 3169 3169 3170 3170 3172 3173 3172 3173 3174 3175 3178 3181 3183 3186 3189 3191 3191 3192 3193 3194 3195 3197 3198 3199 3200 3200 3201 3202 3203 3204 3204
3157 3158 3160 3159 3160 3161 3161 3163 3164 3164 3164 3166 3165 3165 3166 3168 3171 3172 3171 3172 3172 3174 3175 3177 3177 3178 3179 3180 3181 3183 3186 3189 3191 3192 3193 3195 3196 3197 3198 3200 3200 3202 3202 3203 3204 3205 3205 3206 3207
3157 3158 3158 3160 3162 3164 3163 3166 3167 3166 3166 3166 3167 3167 3167 3169 3172 3174 3174 3175 3175 3176 3178 3180 3181 3182 3184 3185 3185 3188 3188 3191 3193 3194 3195 3196 3198 3200 3201 3202 3202 3203 3205 3205 3206 3206 3208 3209 3209
3157 3157 3158 3159 3161 3163 3164 3164 3167 3169 3168 3167 3168 3167 3168 3170 3172 3174 3175 3176 3177 3179 3181 3183 3184 3186 3187 3187 3188 3190 3190 3192 3195 3196 3197 3199 3200 3201 3203 3204 3204 3206 3207 3208 3208 3208 3210 3211 3212
3155 3157 3157 3160 3161 3162 3164 3166 3169 3169 3169 3170 3171 3170 3170 3170 3172 3175 3175 3178 3179 3181 3183 3185 3186 3187 3188 3190 3191 3192 3194 3195 3196 3198 3200 3201 3203 3204 3205 3206 3207 3208 3210 3210 3210 3211 3213 3215 3216
3156 3158 3158 3160 3161 3160 3165 3166 3170 3172 3171 3171 3172 3173 3172 3171 3173 3174 3177 3179 3181 3183 3185 3187 3188 3189 3191 3191 3193 3194 3196 3197 3199 3201 3202 3204 3205 3206 3208 3208 3209 3210 3212 3213 3213 3214 3217 3219 3220
3158 3159 3158 3158 3158 3161 3163 3166 3169 3169 3171 3172 3173 3173 3173 3174 3175 3175 3179 3181 3183 3185 3187 3189 3191 3191 3193 3194 3195 3196 3198 3200 3203 3203 3205 3207 3207 3208 3209 3211 3212 3213 3214 3215 3216 3217 3219 3221 3222
3158 3158 3157 3156 3158 3162 3164 3165 3167 3169 3171 3171 3172 3173 3175 3176 3177 3179 3181 3182 3185 3187 3189 3191 3193 3193 3194 3196 3197 3198 3199 3201 3203 3205 3207 3208 3210 3211 3212 3214 3214 3216 3216 3217 3218 3220 3222 3223 3225
3159 3158 3156 3158 3160 3160 3163 3164 3166 3168 3170 3172 3172 3173 3174 3177 3179 3181 3182 3184 3187 3188 3190 3192 3193 3195 3196 3198 3199 3200 3201 3203 3205 3207 3209 3210 3211 3213 3214 3216 3218 3219 3220 3220 3222 3223 3224 3226 3228
3158 3157 3157 3158 3160 3159 3159 3163 3166 3168 3171 3172 3174 3174 3175 3177 3180 3183 3184 3186 3187 3189 3191 3194 3195 3196 3198 3200 3201 3202 3203 3205 3207 3208 3210 3211 3213 3215 3216 3218 3220 3221 3222 3223 3225 3226 3227 3229 3231
3159 3159 3159 3159 3160 3155 3159 3163 3165 3168 3171 3173 3175 3176 3177 3179 3181 3184 3185 3187 3189 3190 3193 3194 3196 3197 3199 3201 3202 3203 3204 3206 3208 3210 3212 3214 3215 3216 3218 3220 3221 3222 3224 3226 3227 3228 3229 3232 3234
3161 3161 3161 3161 3161 3160 3161 3164 3165 3169 3170 3173 3175 3176 3178 3180 3182 3184 3186 3188 3190 3192 3193 3194 3196 3198 3200 3201 3203 3204 3206 3207 3209 3212 3213 3215 3217 3219 3220 3221 3223 3224 3226 3228 3229 3230 3232 3234 3236
3162 3164 3162 3160 3162 3164 3165 3166 3165 3168 3169 3172 3174 3176 3178 3180 3182 3185 3188 3189 3190 3192 3193 3194 3195 3197 3200 3202 3204 3205 3207 3209 3211 3213 3215 3216 3218 3221 3222 3224 3226 3227 3228 3229 3231 3232 3234 3236 3237
3164 3164 3164 3162 3162 3163 3166 3167 3166 3167 3170 3171 3173 3176 3178 3179 3182 3185 3187 3189 3189 3190 3192 3192 3194 3197 3199 3203 3205 3206 3208 3210 3212 3214 3216 3218 3220 3222 3224 3226 3228 3229 3230 3231 3232 3235 3236 3237 3239
3165 3165 3163 3162 3162 3163 3165 3166 3166 3168 3170 3170 3173 3174 3178 3179 3183 3186 3188 3188 3189 3189 3190 3191 3194 3196 3200 3202 3204 3205 3208 3210 3212 3213 3215 3218 3221 3223 3224 3226 3228 3229 3231 3233 3234 3235 3236 3238 3240
3162 3164 3163 3161 3161 3160 3162 3165 3166 3167 3168 3170 3173 3175 3178 3180 3183 3185 3187 3187 3187 3187 3189 3190 3192 3195 3197 3201 3203 3205 3207 3210 3212 3214 3216 3218 3221 3223 3225 3227 3228 3230 3232 3234 3234 3235 3236 3238 3238
3164 3164 3163 3161 3161 3161 3161 3164 3164 3166 3167 3169 3172 3174 3177 3180 3183 3185 3186 3187 3186 3186 3188 3190 3192 3194 3196 3198 3201 3204 3207 3210 3212 3214 3215 3218 3221 3223 3225 3227 3229 3231 3232 3233 3234 3236 3237 3238 3239
3161 3161 3162 3162 3161 3162 3162 3163 3164 3165 3166 3167 3170 3173 3176 3177 3179 3183 3184 3185 3187 3187 3188 3189 3192 3194 3195 3198 3202 3205 3207 3210 3212 3213 3216 3218 3220 3223 3225 3226 3228 3230 3232 3233 3235 3236 3238 3238 3239
3159 3159 3160 3162 3161 3161 3161 3161 3161 3163 3165 3165 3168 3171 3173 3175 3177 3180 3183 3184 3186 3187 3187 3188 3191 3193 3195 3198 3202 3204 3206 3209 3211 3213 3215 3218 3220 3222 3224 3225 3227 3229 3232 3233 3235 3237 3237 3239 3240
3157 3156 3159 3159 3159 3160 3160 3160 3159 3160 3161 3162 3164 3166 3169 3171 3174 3177 3181 3183 3184 3186 3186 3187 3190 3192 3195 3197 3199 3203 3206 3208 3211 3213 3215 3217 3219 3220 3222 3223 3225 3228 3230 3232 3233 3235 3237 3238 3240
3155 3155 3157 3158 3158 3161 3161 3161 3158 3157 3159 3160 3160 3163 3165 3168 3171 3174 3178 3182 3184 3184 3186 3187 3189 3191 3194 3197 3199 3202 3205 3207 3209 3211 3212 3215 3217 3219 3221 3223 3225 3226 3228 3230 3231 3234 3236 3236 3238
3153 3155 3157 3158 3160 3162 3160 3160 3156 3156 3156 3156 3157 3157 3162 3166 3168 3170 3176 3179 3181 3182 3184 3186 3188 3189 3191 3194 3197 3201 3204 3206 3207 3209 3211 3213 3215 3218 3220 3222 3223 3224 3225 3228 3230 3232 3233 3235 3236
3153 3154 3157 3161 3161 3160 3157 3157 3154 3154 3154 3154 3154 3155 3157 3162 3165 3167 3170 3174 3179 3181 3183 3184 3185 3188 3189 3191 3195 3198 3202 3205 3206 3208 3210 3211 3214 3216 3219 3220 3220 3222 3223 3225 3228 3230 3232 3233 3235
3151 3153 3152 3159 3161 3156 3155 3155 3153 3152 3152 3152 3152 3152 3154 3155 3159 3161 3165 3170 3176 3179 3181 3183 3184 3186 3188 3190 3193 3197 3200 3203 3206 3207 3207 3210 3212 3214 3216 3218 3219 3220 3222 3223 3225 3228 3230 3231 3232
3148 3148 3151 3151 3153 3154 3154 3154 3152 3151 3151 3151 3150 3150 3151 3151 3153 3155 3159 3165 3171 3174 3178 3181 3182 3184 3186 3189 3191 3195 3198 3200 3203 3205 3206 3207 3209 3211 3214 3215 3217 3219 3221 3222 3224 3226 3228 3228 3229
3145 3148 3149 3149 3154 3155 3153 3151 3149 3150 3150 3148 3147 3146 3146 3149 3149 3150 3153 3157 3164 3169 3174 3178 3180 3182 3185 3186 3189 3191 3194 3198 3201 3202 3204 3206 3208 3209 3211 3213 3215 3217 3219 3220 3222 3223 3224 3225 3226
3145 3144 3146 3148 3150 3151 3154 3149 3148 3148 3147 3145 3144 3143 3142 3141 3143 3146 3147 3152 3158 3164 3168 3173 3177 3179 3181 3183 3185 3188 3189 3193 3196 3199 3201 3203 3206 3207 3208 3211 3213 3214 3216 3217 3218 3219 3220 3221 3222
3142 3143 3144 3145 3148 3147 3147 3147 3145 3144 3143 3142 3141 3139 3138 3137 3136 3139 3142 3147 3153 3160 3165 3168 3173 3175 3179 3180 3180 3183 3185 3188 3191 3195 3199 3201 3202 3204 3206 3208 3209 3211 3213 3214 3215 3216 3216 3217 3218